Darbhanga Airport

Jump to: basic info | weather | runways | comments

Related pages: nearby airports | nearby navaids | notams | map

Basic information (top)

Codes: VE89
Location: lon 26.192801, lat 85.916901, elev 156 ft / 48 m msl
Status: small_airport

Weather (top)

Current conditions for Lok Nayak Jayaprakash Airport 58nm (107km) SW (rec'd 2015/03/30 15:50Z):

VEPT 301550Z 20002KT 3500 HZ SCT018 BKN100 20/19 Q1011 NOSIG

Airport forecast for Lok Nayak Jayaprakash Airport 58nm (107km) SW (rec'd 2015/03/30 18:12Z):

TAF VEPT 301500Z 3018/3124 32004KT 3000 HZ FEW020 FEW030CB BKN090 
      TEMPO 3022/3024 1500 ..TSRA SCT018 FEW030CB BKN090 
      BECMG 3102/3104 30002KT 2000 HZ FEW020 SCT100 
      BECMG 3108/3110 3000 HZ FEW020 SCT100 
      TEMPO 3116/3118 1500 ..TSRA FEW015 FEW030CB BKN090

Runways (top)

10/28: 9,000 x 150 ft (2,743 x 46 m) — paved — not lighted

Latest comments (top)

re: Darbhanga Airport: Sir...i requested to bihar government ... [read]

Arrange Domestic Flight Delhi to Darbhanga: Dear Sir I am working in Abudhabi ... [read]

Requested all the concern person to start Darbhanga Airport: Dear Sir, as you know most of the ... [read]

Darbhanga Airport: Dear Sir, Kindly requested to Please, ... [read]

START DARBHANGA AIR PORT: I REQUESTE TO CENTRAL AND BIHAR ... [read]

See all 25 comments for Darbhanga Airport

More... (top)

See also NOTAMs and nearby airports and navaids, or visit the Darbhanga Airport page at the main OurAirports website..